Rbgn^[z[y[W
メイン
   新天体発見情報
     Comet C/2021 L3 (Borisov)
投稿するにはまず登録を

フラット表示 前のトピック | 次のトピック
投稿者 スレッド
佐藤裕久
投稿日時: 2021-7-5 23:50
モデレータ
登録日: 2005-6-12
居住地: 日本
投稿: 2424
オンライン
Comet C/2021 L3 (Borisov)

Gennady Borisovの通報によると、6月8日、MARGO天文台 (Nauchnij近郊, クリミア)の
0.65-m f/1.5 アストログラフで得たCCD画像から、彗星を発見した。
Borisovの注記では、スタックイメージは拡散して見え、中程度に集光した約5"のコマと
p.a. 180°に10"の尾らしいものがある。0'.5の円形範囲で測定したr全光度は20.2等で
あった。
小惑星センターのPCCP webpageに公表後、佐藤英貴氏(東京都文京区, 6月12.4日UT, 60秒
露出12枚のスタック, 0.43-m f/6.8 アストログラフ, Mayhill近郊, ニューメキシコ州, 
米国, 遠隔操作: 強く集光した8"のコマが見えるが尾はない。5".7の円形範囲で測定した
光度は20.0等であった)らCCD位置観測者によって彗星状と観測された。

彗星機能の報告は次の通り:

OC   Date        Reporter           Coma    Tail    PA          Exposures
095  2021-06-11  V. Rumyantsev      5"      9"     180
H06  2021-06-12  H. Sato            8"                           12x60s
B96  2021-06-13  E. Bryssinck      11"                           30x120s
A71  2021-06-13  M. Jaeger         10"
B96  2021-06-14  E. Bryssinck       8"                           30x120s
A71  2021-06-16  M. Jaeger         10"

発見位置は次のとおり、

     2021 UT             R.A. (2000) Decl.       Mag.   Observer
     June  8.90616   22 05 17.37   +71 44 59.8   20.2   Borisov
           8.93145   22 05 16.59   +71 45 14.2   20.1     "
           8.95261   22 05 15.72   +71 45 25.3   20.1     "
          10.88675   22 04 02.19   +72 03 12.7   20.2     "
          10.90105   22 04 01.42   +72 03 19.5   20.1     "
          10.91310   22 04 01.22   +72 03 26.6   20.1     "
          10.92383   22 04 00.66   +72 03 33.5   20.1     "

MPCの楕円軌道要素、位置推算表は次のとおり、

Orbital elements:
    C/2021 L3 (Borisov)                                                         
Epoch 2022 Mar. 2.0 TT = JDT 2459640.5                                          
T 2022 Mar. 12.29419 TT                                 Rudenko                 
q   8.3970663            (2000.0)            P               Q                  
z  +0.0067729      Peri.   93.00385     +0.00067586     -0.96700662             
 +/-0.0000000      Node   344.93742     -0.20208621     +0.24936225             
e   0.9431274      Incl.   78.60380     +0.97936750     +0.05212163             
From 96 observations 2021 June 8-22, mean residual 0".5.                        
                                                                                
    C/2021 L3 (Borisov)                                                         
Epoch 2021 July 5.0 TT = JDT 2459400.5                                          
T 2022 Mar. 12.26429 TT                                 Rudenko                 
q   8.3971194            (2000.0)            P               Q                  
z  +0.0069095      Peri.   92.99930     +0.00073990     -0.96701973             
 +/-0.0000000      Node   344.94047     -0.20211334     +0.24929937             
e   0.9419801      Incl.   78.60425     +0.97936186     +0.05217911             
From 96 observations 2021 June 8-22, mean residual 0".5.                        
                                                                                
Ephemeris:
Date    TT    R. A. (2000) Decl.     Delta      r    Elong.  Phase   m1
2021 05 23    22 11 24.6 +69 05 28   8.8622  8.5649    69.8     6.4  20.1
...
2021 06 07    22 06 22.6 +71 27 19   8.7959  8.5484    72.7     6.5  20.0
...
2021 06 15    22 01 01.1 +72 40 29   8.7584  8.5399    74.3     6.6  20.0
...
2021 06 21    21 55 31.3 +73 33 07   8.7298  8.5337    75.6     6.6  20.0
2021 06 22    21 54 28.3 +73 41 39   8.7250  8.5327    75.8     6.6  20.0
2021 06 23    21 53 22.9 +73 50 07   8.7202  8.5317    76.0     6.6  20.0
...
2021 06 29    21 45 58.2 +74 39 06   8.6913  8.5256    77.3     6.7  20.0
...
2021 07 07    21 33 36.8 +75 38 41   8.6528  8.5178    79.0     6.7  20.0
...
2021 07 22    21 02 35.0 +77 06 13   8.5821  8.5038    82.2     6.8  20.0

(MPEC 2021-M75、CBET 4985)

フラット表示 前のトピック | 次のトピック

題名 投稿者 日時
 » Comet C/2021 L3 (Borisov) 佐藤裕久 2021-7-5 23:50

投稿するにはまず登録を
 
© 1999 Tsutomu Seki.